| time (UTC) | temp F | wind direction | speed MPH | gust MPH | rain 1hr in | rain 24hr in | rain mn in | humidity % | barometer mb |
| 20260503032645 | 74 | 315 | 0.0 | 0.0 | 0.00 | 0.00 | 0.00 | 12 | 1014.5 |
| 20260503031728 | 75 | 315 | 0.0 | 0.0 | 0.00 | 0.00 | 0.00 | 12 | 1014.3 |
| 20260503030745 | 76 | 315 | 0.0 | 0.0 | 0.00 | 0.00 | 0.00 | 11 | 1014.3 |
| 20260503025730 | 76 | 360 | 1.0 | 3.0 | 0.00 | 0.00 | 0.00 | 10 | 1014.1 |
| 20260503023745 | 78 | 324 | 2.0 | 3.0 | 0.00 | 0.00 | 0.00 | 9 | 1013.8 |
| 20260503021728 | 79 | 307 | 6.0 | 8.0 | 0.00 | 0.00 | 0.00 | 10 | 1013.6 |
| 20260503015729 | 80 | 295 | 4.0 | 6.0 | 0.00 | 0.00 | 0.00 | 10 | 1013.5 |
| 20260503014746 | 81 | 294 | 4.0 | 7.0 | 0.00 | 0.00 | 0.00 | 9 | 1013.6 |
| 20260503013828 | 81 | 291 | 4.0 | 6.0 | 0.00 | 0.00 | 0.00 | 9 | 1013.6 |
| 20260503010945 | 83 | 249 | 5.0 | 9.0 | 0.00 | 0.00 | 0.00 | 8 | 1013.3 |
| 20260503004928 | 86 | 247 | 2.0 | 3.0 | 0.00 | 0.00 | 0.00 | 6 | 1013.4 |
| 20260503002948 | 86 | 112 | 0.0 | 0.0 | 0.00 | 0.00 | 0.00 | 6 | 1013.6 |
| 20260503001928 | 85 | 141 | 0.0 | 2.0 | 0.00 | 0.00 | 0.00 | 7 | 1013.5 |
| 20260503000929 | 86 | 102 | 3.0 | 5.0 | 0.00 | 0.00 | 0.00 | 6 | 1013.6 |
| 20260502235947 | 86 | 71 | 4.0 | 7.0 | 0.00 | 0.00 | 0.00 | 6 | 1013.7 |
| 20260502234930 | 85 | 151 | 1.0 | 4.0 | 0.00 | 0.00 | 0.00 | 7 | 1013.7 |
| 20260502233931 | 85 | 93 | 5.0 | 9.0 | 0.00 | 0.00 | 0.00 | 6 | 1013.7 |
| 20260502232929 | 85 | 85 | 4.0 | 6.0 | 0.00 | 0.00 | 0.00 | 7 | 1014.0 |
| 20260502231028 | 86 | 86 | 5.0 | 9.0 | 0.00 | 0.00 | 0.00 | 7 | 1014.0 |
| 20260502230046 | 86 | 90 | 8.0 | 13.0 | 0.00 | 0.00 | 0.00 | 8 | 1014.2 |
| 20260502225030 | 86 | 108 | 4.0 | 8.0 | 0.00 | 0.00 | 0.00 | 7 | 1014.4 |
| 20260502224045 | 87 | 140 | 7.0 | 12.0 | 0.00 | 0.00 | 0.00 | 6 | 1014.5 |
| 20260502222146 | 87 | 55 | 5.0 | 8.0 | 0.00 | 0.00 | 0.00 | 7 | 1015.1 |
| 20260502221146 | 86 | 318 | 1.0 | 2.0 | 0.00 | 0.00 | 0.00 | 7 | 1015.2 |
| 20260502220129 | 87 | 51 | 5.0 | 7.0 | 0.00 | 0.00 | 0.00 | 7 | 1015.5 |
| 20260502215129 | 87 | 280 | 1.0 | 4.0 | 0.00 | 0.00 | 0.00 | 7 | 1015.7 |
| 20260502214143 | 87 | 213 | 1.0 | 2.0 | 0.00 | 0.00 | 0.00 | 8 | 1016.0 |
| 20260502213128 | 85 | 22 | 1.0 | 4.0 | 0.00 | 0.00 | 0.00 | 8 | 1016.3 |
| 20260502212144 | 84 | 156 | 4.0 | 7.0 | 0.00 | 0.00 | 0.00 | 8 | 1016.7 |
| 20260502211127 | 84 | 108 | 4.0 | 7.0 | 0.00 | 0.00 | 0.00 | 8 | 1016.9 |
| 20260502210145 | 85 | 94 | 3.0 | 6.0 | 0.00 | 0.00 | 0.00 | 9 | 1017.0 |
| 20260502210045 | 85 | 111 | 3.0 | 6.0 | 0.00 | 0.00 | 0.00 | 9 | 1017.0 |
| 20260502205046 | 82 | 22 | 3.0 | 4.0 | 0.00 | 0.00 | 0.00 | 9 | 1017.3 |
| 20260502204044 | 83 | 134 | 5.0 | 9.0 | 0.00 | 0.00 | 0.00 | 8 | 1017.7 |
| 20260502203129 | 83 | 83 | 3.0 | 6.0 | 0.00 | 0.00 | 0.00 | 8 | 1017.8 |
| 20260502202227 | 83 | 179 | 5.0 | 10.0 | 0.00 | 0.00 | 0.00 | 9 | 1017.9 |
| 20260502201228 | 83 | 185 | 4.0 | 5.0 | 0.00 | 0.00 | 0.00 | 9 | 1018.1 |
| 20260502200228 | 83 | 157 | 3.0 | 7.0 | 0.00 | 0.00 | 0.00 | 9 | 1018.3 |
| 20260502194329 | 82 | 20 | 2.0 | 4.0 | 0.00 | 0.00 | 0.00 | 10 | 1018.5 |
| 20260502193427 | 82 | 168 | 7.0 | 11.0 | 0.00 | 0.00 | 0.00 | 11 | 1018.7 |
| 20260502193327 | 82 | 166 | 6.0 | 10.0 | 0.00 | 0.00 | 0.00 | 10 | 1018.8 |
| 20260502191427 | 79 | 249 | 1.0 | 3.0 | 0.00 | 0.00 | 0.00 | 11 | 1019.2 |
| 20260502190428 | 79 | 281 | 1.0 | 3.0 | 0.00 | 0.00 | 0.00 | 11 | 1019.3 |
| 20260502185429 | 81 | 236 | 2.0 | 7.0 | 0.00 | 0.00 | 0.00 | 11 | 1019.5 |
| 20260502184428 | 80 | 181 | 3.0 | 5.0 | 0.00 | 0.00 | 0.00 | 10 | 1019.8 |
| 20260502183443 | 77 | 238 | 0.0 | 0.0 | 0.00 | 0.00 | 0.00 | 12 | 1020.0 |
| 20260502182429 | 77 | 270 | 0.0 | 0.0 | 0.00 | 0.00 | 0.00 | 12 | 1020.1 |
| 20260502181428 | 77 | 9 | 2.0 | 4.0 | 0.00 | 0.00 | 0.00 | 12 | 1020.4 |
| 20260502180526 | 77 | 157 | 0.0 | 1.0 | 0.00 | 0.00 | 0.00 | 13 | 1020.5 |
| 20260502163926 | 71 | 199 | 2.0 | 5.0 | 0.00 | 0.00 | 0.00 | 18 | 1021.7 |
| 20260502162926 | 71 | 202 | 0.0 | 0.0 | 0.00 | 0.00 | 0.00 | 18 | 1021.7 |
| 20260502161944 | 70 | 189 | 1.0 | 3.0 | 0.00 | 0.00 | 0.00 | 20 | 1021.7 |
| 20260502160945 | 69 | 96 | 0.0 | 0.0 | 0.00 | 0.00 | 0.00 | 20 | 1021.8 |
| 20260502152028 | 65 | 202 | 0.0 | 0.0 | 0.00 | 0.00 | 0.00 | 22 | 1022.0 |
| 20260502151127 | 65 | 247 | 0.0 | 0.0 | 0.00 | 0.00 | 0.00 | 22 | 1022.0 |
| 20260502150128 | 66 | 202 | 2.0 | 3.0 | 0.00 | 0.00 | 0.00 | 22 | 1022.1 |
| 20260502122927 | 49 | 112 | 0.0 | 0.0 | 0.00 | 0.00 | 0.00 | 39 | 1020.7 |
| 20260502122826 | 49 | 112 | 0.0 | 0.0 | 0.00 | 0.00 | 0.00 | 39 | 1020.7 |
| 20260502121829 | 50 | 209 | 1.0 | 2.0 | 0.00 | 0.00 | 0.00 | 38 | 1020.6 |
| 20260502120827 | 50 | 67 | 0.0 | 1.0 | 0.00 | 0.00 | 0.00 | 38 | 1020.4 |
| 20260502115828 | 50 | 360 | 0.0 | 0.0 | 0.00 | 0.00 | 0.00 | 37 | 1020.3 |
| 20260502114826 | 51 | 90 | 0.0 | 0.0 | 0.00 | 0.00 | 0.00 | 36 | 1020.3 |
| 20260502114728 | 51 | 90 | 0.0 | 0.0 | 0.00 | 0.00 | 0.00 | 36 | 1020.3 |
| 20260502113729 | 50 | 45 | 1.0 | 2.0 | 0.00 | 0.00 | 0.00 | 39 | 1020.3 |
| 20260502112827 | 51 | 22 | 0.0 | 0.0 | 0.00 | 0.00 | 0.00 | 37 | 1020.4 |
| 20260502111827 | 52 | 22 | 0.0 | 0.0 | 0.00 | 0.00 | 0.00 | 35 | 1020.4 |
| 20260502110845 | 52 | 45 | 0.0 | 0.0 | 0.00 | 0.00 | 0.00 | 37 | 1020.3 |
| 20260502105827 | 52 | 67 | 0.0 | 0.0 | 0.00 | 0.00 | 0.00 | 37 | 1020.2 |
| 20260502104827 | 51 | 292 | 2.0 | 3.0 | 0.00 | 0.00 | 0.00 | 38 | 1020.3 |
| 20260502103926 | 51 | 315 | 0.0 | 0.0 | 0.00 | 0.00 | 0.00 | 40 | 1020.3 |
| 20260502102929 | 51 | 22 | 0.0 | 0.0 | 0.00 | 0.00 | 0.00 | 39 | 1020.2 |
| 20260502101929 | 52 | 22 | 0.0 | 0.0 | 0.00 | 0.00 | 0.00 | 36 | 1020.2 |
| 20260502091126 | 56 | 341 | 1.0 | 2.0 | 0.00 | 0.00 | 0.00 | 30 | 1020.0 |
| 20260502090226 | 56 | 337 | 1.0 | 2.0 | 0.00 | 0.00 | 0.00 | 28 | 1020.0 |
| 20260502090128 | 57 | 337 | 1.0 | 2.0 | 0.00 | 0.00 | 0.00 | 27 | 1020.0 |
| 20260502070626 | 58 | 22 | 0.0 | 1.0 | 0.00 | 0.00 | 0.00 | 27 | 1019.7 |
| 20260502065627 | 59 | 90 | 0.0 | 0.0 | 0.00 | 0.00 | 0.00 | 26 | 1019.7 |
| 20260502064644 | 61 | 90 | 0.0 | 0.0 | 0.00 | 0.00 | 0.00 | 23 | 1019.5 |
| 20260502063627 | 62 | 90 | 1.0 | 2.0 | 0.00 | 0.00 | 0.00 | 21 | 1019.5 |
| 20260502061627 | 62 | 180 | 1.0 | 2.0 | 0.00 | 0.00 | 0.00 | 21 | 1019.3 |
| 20260502060726 | 63 | 135 | 0.0 | 1.0 | 0.00 | 0.00 | 0.00 | 21 | 1019.2 |
| 20260502055737 | 63 | 112 | 0.0 | 0.0 | 0.00 | 0.00 | 0.00 | 20 | 1018.9 |
| 20260502054820 | 63 | 90 | 0.0 | 0.0 | 0.00 | 0.00 | 0.00 | 21 | 1019.0 |
| 20260502053820 | 64 | 90 | 0.0 | 1.0 | 0.00 | 0.00 | 0.00 | 19 | 1018.8 |
| 20260502052820 | 65 | 90 | 0.0 | 0.0 | 0.00 | 0.00 | 0.00 | 18 | 1018.8 |
| 20260502051820 | 66 | 202 | 0.0 | 0.0 | 0.00 | 0.00 | 0.00 | 18 | 1018.6 |
| 20260502045834 | 67 | 90 | 0.0 | 1.0 | 0.00 | 0.00 | 0.00 | 14 | 1018.5 |
| 20260502044920 | 68 | 292 | 0.0 | 0.0 | 0.00 | 0.00 | 0.00 | 14 | 1018.2 |
| 20260502043918 | 69 | 337 | 0.0 | 1.0 | 0.00 | 0.00 | 0.00 | 14 | 1018.1 |
| 20260502041936 | 70 | 331 | 3.0 | 8.0 | 0.00 | 0.00 | 0.00 | 14 | 1017.8 |
| 20260502041020 | 69 | 358 | 3.0 | 7.0 | 0.00 | 0.00 | 0.00 | 13 | 1017.7 |
| 20260502040042 | 69 | 342 | 3.0 | 6.0 | 0.00 | 0.00 | 0.00 | 14 | 1017.5 |
| 20260502035119 | 70 | 315 | 0.0 | 3.0 | 0.00 | 0.00 | 0.00 | 15 | 1017.4 |
| 20260502034121 | 70 | 334 | 2.0 | 5.0 | 0.00 | 0.00 | 0.00 | 14 | 1017.2 |
| 20260502033137 | 71 | 335 | 3.0 | 5.0 | 0.00 | 0.00 | 0.00 | 14 | 1017.1 |